Vancouver, WA
on Wednesday, January 2, 2013

Wednesday
Previous Day Next Day
Daily Summary
 ActualAverageRecord
Temperature
Mean Temperature °F 40°F  
Max Temperature 42°F 46°F 58°F (1953)
Min Temperature 21°F 34°F 18°F (1924)
Degree Days
Heating Degree Days 33    
Month to date heating degree days 67  
Since 1 July heating degree days 1615  
Cooling Degree Days 0    
Month to date cooling degree days 0  
Year to date cooling degree days 0  
Moisture
Dew Point 22°F   
Average Humidity 71    
Maximum Humidity 92    
Minimum Humidity 49    
Precipitation
Precipitation 0.00 in 0.21 in 1.57 in (1909)
Month to date precipitation 0.00 0.42  
Year to date precipitation 0.00 0.42  
Snow
Snow 0.00 in in in ()
Month to date snowfall 0.0  
Snow Depth 0.00 in   
Wind
Wind Speed 3 mph   
Max Wind Speed 15 mph   
Max Gust Speed 20 mph   
Visibility 9 miles   
Events     

Key: T is trace of precipitation, MM is missing value
Source: NWS Daily Summary
Time(PST)TemperatureDew PointHumidity Pressure Visibility Wind DirectionWind SpeedGust SpeedPrecipitationEvents Conditions
12:53 AM 26.1°F 23.0°F 88% 30.37 in 6.0 miles Calm Calm - N/A   Clear
1:53 AM 25.0°F 21.9°F 88% 30.35 in 6.0 miles Calm Calm - N/A   Clear
2:53 AM 24.1°F 21.0°F 88% 30.35 in 7.0 miles Calm Calm - N/A   Clear
4:53 AM 23.0°F 19.9°F 88% 30.33 in 8.0 miles Calm Calm - N/A   Clear
5:53 AM 21.9°F 19.0°F 89% 30.33 in 9.0 miles Calm Calm - N/A   Clear
7:53 AM 25.0°F 21.0°F 85% 30.33 in 9.0 miles Calm Calm - N/A   Clear
8:53 AM 26.1°F 23.0°F 88% 30.34 in 9.0 miles Calm Calm - N/A   Clear
9:53 AM 36.0°F 25.0°F 64% 30.35 in 10.0 miles Calm Calm - N/A   Clear
10:53 AM 37.0°F 25.0°F 62% 30.35 in 10.0 miles NW 4.6 mph - 0.01 in   Clear
11:53 AM 39.9°F 26.1°F 58% 30.33 in 10.0 miles WNW 3.5 mph - N/A   Clear
12:53 PM 41.0°F 24.1°F 51% 30.30 in 10.0 miles Calm Calm - N/A   Clear
1:53 PM 42.1°F 24.1°F 49% 30.29 in 10.0 miles ESE 10.4 mph - N/A   Clear
3:53 PM 39.0°F 23.0°F 53% 30.29 in 10.0 miles ESE 11.5 mph - N/A   Clear
4:53 PM 36.0°F 21.0°F 55% 30.28 in 10.0 miles ESE 9.2 mph - N/A   Clear
5:53 PM 36.0°F 21.0°F 55% 30.28 in 10.0 miles ESE 8.1 mph - N/A   Clear
6:53 PM 35.1°F 21.0°F 57% 30.27 in 10.0 miles East 5.8 mph - N/A   Clear
7:53 PM 33.1°F 21.0°F 61% 30.26 in 10.0 miles Calm Calm - N/A   Clear
8:53 PM 30.9°F 21.0°F 67% 30.25 in 10.0 miles Calm Calm - N/A   Clear
9:53 PM 28.0°F 21.9°F 78% 30.25 in 10.0 miles Calm Calm - N/A   Clear
10:53 PM 25.0°F 19.9°F 81% 30.25 in 10.0 miles Calm Calm - N/A   Clear
Moon Phase
Jan. 02 Jan. 04 Jan. 11 Jan. 18 Jan. 26
Sunrise:07:51 AM (PST) Moon Rise:10:35 PM (PST)1/2
Sunset:04:38 PM (PST) Moon Set:10:18 AM (PST)1/2

Copyright © 2014 The Weather Underground, Inc.